Weather in Pishug

Russia / Kostroma Oblast     58°53′13″N   45°43′07″E
temp.,
°C
wind,
m/s
gust,
m/s
humid.,
%
clouds,
%
prec.,
mm/h
press.,
hPa
HPBL,
m
18 may, tue
tue1800:00+13ene238899 0.0 101847
03:00+12e2792100 0.0 1019138
06:00+14e378182 0.0 1019213
09:00+20ese45627 0.0 1019652
12:00+24ese445161 0.0 10191217
15:00+25se444968 0.0 10181343
18:00+23ese376193 0.0 1018488
21:00+17ese3118087 0.0 1018222
19 may, wed
wed1900:00+15se3117785 0.0 1018262
03:00+13ese2108499 0.0 1019214
06:00+16se397465 0.0 1018272
09:00+22se475419 0.0 1018646
12:00+25se56445 0.0 10171262
15:00+26se46405 0.0 10171571
18:00+23se48505 0.0 1016646
21:00+16se311765 0.0 1017247
20 may, thu
thu2000:00+14se311825 0.0 1017216
03:00+13ese311886 0.0 1016224
06:00+16se310768 0.0 1016292
09:00+23se58545 0.0 1016916
12:00+25sse693733 0.0 10141834
15:00+26se59361 0.0 10131823
18:00+23se59485 0.0 10121114
21:00+17se413685 0.0 1012404
21 may, fri
fri2100:00+14se312785 0.0 1012318
03:00+12ese31081100 0.0 1011237
06:00+15se412728 0.0 1010484
09:00+20sse595167 0.1 10091072
12:00+16sse61086100 1.6 1009744
15:00+14sse3993100 4.0 1009576
18:00+16ssw48896 0.9 1008686
21:00+13wsw4119380 4.5 1010424
22 may, sat
sat2200:00+12wsw39959 0.1 1012434
03:00+11w3895100 0.1 1015446
06:00+11wsw2492100 0.0 1016218
09:00+15sw3567100 0.0 1018783
12:00+16ssw4653100 0.0 10181585
15:00+16ssw4558100 0.1 10181304
18:00+15ssw4665100 0.0 1018711
21:00+10sw27900 0.0 1019137